Location: ??????
(56.0120°N, 39.1740°E)
Time: 06:10:22
(UTC+00:00)

NOSS 3-4 (A) - Pass Details

Date: 14 April 2026
Orbit: 769 x 1442 km, 63.4° (Epoch: 10 January)

Event Time Altitude Azimuth Distance (km) Brightness Sun altitude
Rises 18:05:05 0° 196° (SSW) 3,239 6.0 -12.6°
Reaches altitude 10° 18:07:33 10° 188° (S) 2,340 5.2 -12.9°
Maximum altitude 18:12:21 36° 123° (ESE) 1,294 3.7 -13.4°
Drops below altitude 10° 18:17:40 10° 59° (ENE) 2,589 5.6 -14.0°
Sets 18:20:31 0° 51° (NE) 3,634 6.4 -14.2°
